Theta_e
358 359 359 352 329 326 318 318 325 321 322 329 330 326 324 323 321 315 338 344 347 349 356 358 364 360 362 361 362 362 362 362 361 361 361 361 360 360 361 362 361 360 361 361 360 359 358 361 360
359 356 354 345 323 314 317 324 320 324 328 331 330 326 324 319 329 331 336 344 349 349 356 355 363 362 362 362 362 361 362 362 362 361 361 360 360 360 360 362 361 361 361 362 360 359 359 360 361
355 356 344 332 323 315 317 325 326 328 329 329 326 326 326 322 332 334 339 346 351 352 355 355 362 362 362 362 361 361 362 362 362 361 361 360 360 361 360 360 361 361 360 361 361 359 359 358 360
357 352 344 324 317 322 324 328 329 327 329 330 328 321 330 335 333 339 343 350 351 352 352 359 361 363 362 361 361 360 361 361 361 362 361 360 361 360 361 359 357 359 361 360 359 359 360 359 359
346 338 326 321 319 323 329 331 331 327 327 327 326 322 327 334 338 344 348 351 350 353 354 358 363 363 363 361 362 361 361 361 361 360 361 359 359 360 360 358 357 356 360 360 359 359 357 358 357
333 331 319 315 318 326 329 334 331 328 326 325 325 326 328 338 341 345 349 349 353 352 354 359 361 363 362 362 361 361 361 360 360 360 361 358 359 357 357 359 357 357 358 358 358 358 357 356 355
331 328 320 319 319 322 327 335 329 328 325 323 330 323 329 338 344 345 347 352 353 354 356 358 356 362 363 362 361 361 361 361 361 359 360 359 357 354 356 355 358 357 356 356 357 357 357 357 356
335 330 321 322 317 320 330 331 331 328 324 331 330 325 326 339 346 348 349 351 351 354 355 355 356 357 359 360 362 361 360 359 357 357 359 348 346 347 353 354 355 358 358 358 358 358 357 357 356
339 325 319 320 319 321 331 327 330 330 327 327 328 332 336 343 345 347 346 350 348 350 352 355 355 357 361 363 362 362 360 360 359 359 355 351 355 351 350 353 354 356 358 358 357 357 356 356 354
328 323 321 327 328 327 329 328 327 325 325 325 328 335 341 342 343 343 342 344 345 346 349 353 355 356 357 358 362 364 362 363 362 362 359 353 349 352 351 353 351 354 356 357 357 357 358 354 352
328 322 326 328 330 332 329 325 327 325 323 327 327 334 339 340 342 340 339 340 341 345 348 350 352 355 355 356 358 358 359 359 359 359 356 353 352 351 355 354 353 360 356 360 356 354 352 353 354
325 329 328 329 329 330 327 327 322 323 325 330 333 337 338 338 340 338 338 339 341 343 345 349 350 353 354 355 356 355 355 356 354 358 359 358 354 353 354 358 355 354 356 356 357 352 351 351 355
326 328 330 330 328 330 329 324 322 324 330 332 336 337 338 338 339 340 342 342 343 343 345 346 350 354 354 355 353 355 357 355 356 358 357 359 357 355 357 356 357 356 355 353 353 351 350 351 351
330 330 328 328 328 327 324 322 323 324 331 332 335 335 337 337 337 335 338 340 344 346 347 349 351 353 354 354 357 357 357 357 358 358 358 359 358 359 357 356 354 353 356 356 355 354 351 351 349
326 321 327 328 327 324 327 320 320 326 330 330 332 334 335 336 338 338 339 339 338 341 346 348 351 352 354 355 356 355 355 355 356 357 360 362 361 360 360 358 354 352 357 358 356 355 354 353 350
323 323 315 325 327 324 324 316 322 326 327 328 330 332 334 332 334 337 337 336 335 339 342 347 347 350 351 353 355 355 358 359 358 360 362 360 361 361 361 358 356 357 357 356 355 353 351 352 349
319 313 315 318 327 324 322 317 323 326 325 328 329 330 332 334 333 336 335 335 335 338 341 345 348 349 351 355 354 356 356 356 359 361 362 363 362 360 362 360 360 359 357 354 354 353 353 350 347
311 312 315 317 322 323 320 319 323 324 322 325 327 326 327 331 333 335 335 336 337 338 340 344 345 349 353 353 354 355 353 354 357 359 361 360 360 361 364 362 361 359 356 353 354 353 352 351 347
317 315 314 319 323 321 320 320 321 324 322 321 323 323 324 327 333 335 335 336 336 338 339 341 342 348 350 349 347 348 348 354 355 359 363 361 358 357 361 364 363 359 353 353 353 354 352 348 351
317 315 314 320 323 322 320 320 323 324 323 324 324 324 324 325 327 330 331 332 333 335 338 342 344 347 350 350 350 351 354 355 357 360 362 363 361 361 362 366 362 363 358 357 356 355 350 349 352
317 315 315 315 320 319 319 318 319 323 325 326 326 327 327 326 327 329 330 332 334 335 338 342 346 348 350 351 351 353 356 357 356 359 361 361 362 363 365 367 365 363 360 356 358 357 355 348 352
313 320 319 318 314 311 318 309 316 321 321 323 324 326 327 328 329 329 330 332 334 336 339 343 347 349 350 352 350 352 348 348 355 358 359 362 362 362 363 367 366 364 361 359 358 358 357 356 353
316 320 319 316 315 313 312 310 315 320 318 321 324 325 327 330 330 330 331 333 335 338 340 342 347 350 351 351 353 350 351 351 354 358 359 362 362 365 366 367 366 363 360 361 360 359 359 357 354
323 319 317 316 313 307 309 309 312 316 319 323 325 327 329 330 332 334 336 337 337 339 342 343 347 349 351 352 352 353 353 353 352 356 356 358 358 359 364 365 366 365 362 362 361 361 361 359 358
319 312 307 304 306 304 312 310 314 320 323 326 326 328 330 331 332 333 335 336 338 339 342 344 347 348 350 350 351 352 354 356 356 358 355 359 357 357 358 360 364 365 365 364 364 363 363 362 358
317 311 306 300 301 305 311 308 315 322 324 327 329 331 333 333 332 332 334 336 339 341 343 344 345 348 349 350 352 355 358 354 355 358 356 356 358 357 363 360 360 365 365 364 365 361 360 361 364
315 311 312 308 308 307 309 312 317 321 323 329 329 331 331 333 333 333 335 336 339 342 343 345 347 348 349 348 352 354 356 357 356 358 359 357 361 359 361 360 358 358 358 364 365 360 361 361 359
317 318 309 309 300 300 305 307 312 320 325 329 328 329 332 333 332 333 335 336 339 341 344 345 347 347 349 349 351 352 354 356 357 358 359 360 362 364 364 362 361 359 358 358 357 357 359 359 359
313 312 310 310 307 302 301 306 317 322 326 328 330 332 333 334 335 335 338 339 339 343 344 344 346 348 349 350 352 353 354 355 356 355 358 360 361 362 364 362 359 356 353 352 353 354 355 354 356
314 313 313 307 304 308 306 307 319 322 325 331 332 332 334 336 337 338 336 341 350 354 356 349 347 347 350 352 353 352 354 356 354 357 359 363 362 363 363 356 354 353 352 351 351 349 348 347 346
Wind_Speed
6 3 1 3 1 1 4 5 8 12 10 5 12 3 4 3 0 1 3 7 10 13 10 9 9 9 9 9 9 10 11 11 9 8 10 10 8 9 10 12 10 9 10 10 11 12 12 11 12
5 3 2 1 2 5 5 7 13 7 11 17 9 5 4 2 2 4 10 7 11 11 9 8 7 10 10 10 9 9 10 10 10 9 9 9 8 8 8 11 9 10 9 11 9 11 11 11 12
5 2 2 2 1 4 6 9 9 12 15 13 6 5 3 2 3 8 1 12 12 10 9 8 8 8 10 10 9 8 8 10 9 9 9 8 7 10 9 8 9 10 9 10 10 10 10 11 12
2 2 2 2 5 4 4 13 16 16 9 3 8 7 4 2 8 2 8 11 13 10 8 9 9 10 9 9 9 9 8 8 8 8 9 8 9 7 8 7 8 6 10 10 9 9 9 10 11
1 1 1 3 4 4 8 14 14 12 8 8 4 6 5 2 1 12 9 10 10 9 8 9 9 10 9 9 8 8 9 8 7 8 8 5 6 7 7 8 9 8 10 9 10 9 8 8 8
2 1 3 3 6 5 7 12 15 8 7 8 6 9 6 4 11 11 10 7 9 9 9 8 9 9 9 8 7 8 7 7 6 5 7 4 5 4 4 7 8 8 9 9 9 9 8 8 7
3 2 4 5 4 3 5 11 6 7 8 5 11 6 4 9 12 10 9 9 9 8 7 8 8 8 9 8 7 7 6 6 5 4 6 5 10 7 5 2 6 8 8 8 7 9 8 6 6
3 1 3 7 2 2 4 5 7 3 4 11 4 5 8 14 12 10 10 8 8 8 7 7 6 7 6 7 7 7 6 5 4 3 13 2 4 5 6 7 2 6 8 9 9 8 7 8 6
2 3 5 3 2 2 6 4 4 4 10 2 3 5 8 17 13 12 10 9 7 7 7 7 7 6 5 3 4 6 5 4 5 5 11 8 3 6 6 4 3 3 9 9 9 8 8 7 7
3 3 2 2 4 6 6 4 4 4 9 3 6 8 18 16 14 14 13 10 9 9 9 7 7 7 5 4 4 3 4 3 3 2 6 4 2 2 3 4 3 4 4 7 8 8 7 5 4
3 3 2 5 10 6 10 5 4 5 7 8 12 18 19 15 12 13 12 11 11 9 8 9 8 6 6 6 4 4 4 4 3 3 4 4 4 3 3 1 2 2 3 3 6 5 3 5 3
5 1 3 6 6 9 7 8 5 1 5 6 12 20 17 15 14 12 11 9 8 8 9 9 9 7 7 5 4 5 5 4 4 4 6 5 4 4 3 2 3 4 3 5 4 3 4 4 3
4 5 4 5 11 10 11 8 5 5 5 8 16 18 17 14 14 13 10 9 9 9 10 9 9 8 7 6 5 5 4 3 5 5 5 6 5 5 4 4 4 5 5 4 5 4 3 4 5
3 4 4 6 8 6 7 5 0 4 6 12 17 15 14 13 12 8 8 10 11 10 8 8 9 9 7 6 6 5 5 6 5 5 5 7 5 4 4 4 3 4 5 5 5 5 5 4 4
1 4 5 6 5 4 7 6 4 7 8 13 14 12 11 11 11 12 13 11 9 7 5 9 9 8 7 7 5 5 6 4 4 3 4 5 5 4 4 4 3 4 5 6 5 6 5 4 5
0 1 4 5 6 3 2 3 5 8 10 14 13 11 11 10 10 12 12 11 8 8 9 9 6 5 7 7 4 3 3 3 3 3 2 4 4 4 4 4 4 5 5 5 5 7 6 5 6
1 2 3 1 2 4 4 4 9 10 11 15 14 13 11 10 13 12 14 12 11 11 9 7 6 8 7 6 3 3 5 4 4 3 3 3 3 3 3 4 3 5 5 5 5 5 6 6 6
2 1 2 2 2 2 4 6 13 13 13 16 15 14 12 14 16 15 15 14 12 10 8 8 8 8 7 4 3 3 4 5 4 3 4 4 3 4 3 3 4 5 4 5 5 5 5 5 4
2 2 0 1 2 3 4 6 12 15 13 14 15 15 14 16 16 14 14 13 12 12 11 11 9 10 7 5 4 4 5 4 4 5 7 6 5 5 5 3 4 5 5 5 6 5 6 5 4
7 3 1 1 0 3 3 5 9 16 16 16 16 16 17 17 15 14 13 13 14 14 13 12 12 10 9 7 4 3 3 3 4 4 4 5 5 5 5 3 3 4 4 6 7 6 4 5 5
9 11 5 1 5 2 3 4 6 10 10 13 14 15 15 16 16 15 15 16 14 15 15 13 12 11 10 10 6 4 2 3 4 2 1 4 6 5 5 4 3 4 3 4 6 7 6 4 4
5 4 7 6 6 0 4 1 6 11 15 14 16 15 15 17 16 14 15 15 15 15 11 12 12 11 10 11 9 8 6 5 2 2 1 2 5 6 6 5 4 5 4 5 6 7 7 6 5
3 1 9 5 3 2 2 3 3 6 13 18 19 19 18 17 16 16 16 16 14 10 10 9 10 10 9 11 10 8 8 6 4 2 3 3 3 5 6 5 6 5 5 6 7 7 8 7 7
11 7 5 3 1 4 3 4 3 7 16 17 18 19 19 18 17 16 17 14 11 9 9 9 10 10 10 11 11 11 10 8 6 5 4 3 3 4 6 6 6 6 6 7 6 8 9 8 8
1 2 2 2 1 2 2 5 6 8 8 13 20 20 20 19 16 15 15 13 10 10 10 9 9 10 10 12 11 12 11 10 10 8 6 4 4 4 4 6 6 6 7 6 6 6 7 8 8
4 1 3 5 3 4 3 6 2 6 3 4 9 13 16 16 16 17 17 15 11 10 9 9 9 10 11 12 12 10 10 8 8 8 6 5 4 5 3 4 5 5 6 6 6 7 7 8 7
5 6 2 1 2 3 2 4 6 6 6 5 6 11 14 13 15 17 14 11 9 9 11 11 11 11 12 13 10 11 10 11 9 10 8 6 6 4 4 5 5 5 5 5 5 6 7 7 8
4 9 3 1 3 5 2 5 0 5 6 7 5 3 7 7 10 10 10 9 9 9 8 9 11 14 12 12 11 10 11 11 11 9 10 9 7 5 4 4 4 4 5 5 6 7 8 8 7
5 4 2 1 1 2 5 3 3 5 2 3 5 7 4 9 10 9 8 7 5 6 7 9 11 13 11 11 11 11 11 11 10 9 9 9 7 4 4 4 2 1 3 5 6 8 9 9 9
3 3 6 4 3 0 3 4 1 4 2 4 5 9 9 8 10 11 7 9 7 5 4 6 6 10 9 9 10 12 12 10 9 8 7 4 4 2 4 6 5 3 4 8 9 9 4 3 4
Wind_Direction
190 170 266 237 208 60 58 60 102 126 141 133 141 145 156 42 85 168 93 145 151 147 158 167 157 144 143 138 135 132 140 139 133 130 128 141 144 152 144 140 125 124 121 117 112 110 113 115 124
146 134 253 317 60 89 79 124 128 148 139 133 104 89 59 73 63 113 137 159 159 149 153 152 148 148 140 144 134 136 132 135 137 129 136 129 141 129 127 127 130 107 112 119 113 115 117 114 120
145 212 292 8 37 68 110 148 132 125 146 148 119 64 92 141 99 153 293 148 153 155 159 151 158 142 150 134 133 136 132 134 128 125 126 131 137 135 131 121 122 124 118 107 119 120 124 121 120
171 171 186 53 53 70 90 144 136 129 130 133 122 95 108 24 144 189 139 151 155 157 164 147 154 146 138 134 139 137 136 131 140 134 126 133 132 136 130 122 123 131 125 123 115 120 126 131 130
59 171 65 81 67 60 91 130 148 148 145 144 175 125 105 109 10 138 136 151 154 153 158 158 168 154 148 139 132 128 137 141 128 137 132 129 119 136 132 125 124 141 129 123 118 108 117 126 136
114 272 59 44 41 55 88 148 153 148 145 144 123 131 134 147 155 145 134 140 153 160 161 156 167 159 149 149 137 130 132 136 141 130 124 122 104 86 104 129 129 133 127 121 117 119 125 127 128
77 47 62 52 37 26 132 155 156 144 149 168 142 122 120 165 152 143 152 153 156 160 167 161 165 167 154 157 156 143 143 148 145 144 107 55 60 20 34 107 135 131 126 126 126 134 135 138 130
101 95 81 39 351 36 145 131 126 147 115 123 143 152 163 173 161 152 151 156 166 172 172 168 174 173 171 169 164 162 164 163 152 129 82 18 132 4 37 303 178 138 133 126 125 126 143 152 147
126 72 91 94 351 334 158 160 75 81 137 138 129 156 152 147 147 146 154 162 169 175 180 183 182 185 172 170 175 187 180 201 203 167 136 164 248 155 253 349 330 164 146 140 132 124 125 138 153
60 87 116 70 326 266 180 124 138 149 150 108 106 112 137 145 158 155 169 171 193 179 186 185 192 199 169 204 185 210 223 236 232 205 146 164 194 241 233 238 259 141 161 153 136 131 114 158 166
100 122 171 20 337 242 147 113 127 162 192 191 177 155 151 152 162 165 180 175 185 181 184 185 193 204 188 205 197 215 217 230 213 210 158 176 179 219 268 156 305 189 143 156 158 153 161 136 187
127 154 175 19 3 128 123 119 101 31 328 281 168 157 151 157 167 170 177 182 175 189 187 181 192 199 203 212 212 227 232 237 245 217 195 197 207 207 233 260 206 226 208 191 185 179 159 167 173
159 173 83 57 78 95 100 80 106 52 36 122 148 154 161 165 170 177 179 169 184 195 185 191 188 196 206 214 224 240 242 231 251 252 229 223 221 217 225 233 232 228 214 217 207 201 201 201 199
117 109 76 65 112 111 102 84 238 83 110 132 156 159 169 172 173 178 195 202 198 209 193 194 201 200 203 214 229 251 258 261 271 270 249 232 235 236 233 232 225 225 213 208 219 207 211 214 217
129 129 152 165 188 125 143 77 70 130 148 147 165 172 173 182 182 199 199 209 201 205 187 207 213 214 211 223 233 253 262 255 273 276 245 227 225 227 231 239 232 209 204 199 203 212 208 226 217
209 254 202 175 178 141 206 102 153 153 160 163 175 189 190 197 204 202 214 215 219 206 203 208 205 222 229 227 230 267 265 265 274 277 253 235 207 197 222 244 220 195 188 193 202 205 209 218 226
156 303 303 261 248 130 219 138 163 167 174 176 186 201 201 208 223 226 220 216 215 217 219 224 218 225 235 234 218 235 270 268 270 284 265 269 250 206 234 210 206 188 185 183 192 199 219 209 211
184 225 217 279 172 224 187 138 158 177 185 188 194 212 204 210 222 218 222 218 219 229 242 247 245 245 229 228 216 229 260 264 252 258 247 262 234 212 225 202 187 179 186 180 195 212 201 218 216
265 209 79 294 141 228 214 191 181 182 189 194 205 214 223 224 222 227 237 237 240 243 245 243 244 241 208 191 213 234 248 250 247 236 233 235 232 216 221 207 178 163 177 190 193 210 207 204 203
231 232 169 132 282 211 202 225 191 188 199 203 202 208 221 229 226 230 237 245 245 249 249 244 238 230 210 201 205 205 218 229 254 236 250 222 231 228 228 210 187 186 165 181 192 204 212 227 200
237 234 191 339 149 135 234 205 185 203 208 209 223 218 221 227 233 229 226 230 235 238 238 238 233 220 209 204 189 170 192 248 238 223 257 215 214 221 234 241 195 181 197 189 192 202 220 242 209
276 196 199 160 192 68 320 280 216 204 209 210 218 219 225 224 228 240 238 230 229 239 240 235 225 213 203 196 202 200 216 244 265 323 312 264 223 230 231 236 211 199 190 191 200 206 221 217 246
2 228 147 120 105 191 182 241 129 188 220 219 215 217 220 227 222 228 234 240 239 238 231 231 225 218 207 196 204 202 221 235 245 246 274 267 234 228 219 211 201 201 217 202 201 202 219 227 245
124 108 102 105 238 241 102 273 204 183 219 216 221 222 221 218 222 224 235 241 239 228 226 221 213 217 202 199 200 205 210 221 228 229 248 246 240 217 218 220 218 210 217 209 210 217 219 230 246
271 195 274 211 204 5 143 245 269 221 204 216 209 219 225 217 215 213 218 221 223 219 222 215 206 217 208 205 208 211 216 216 224 232 238 243 249 240 231 228 229 218 230 229 230 222 236 233 236
182 283 321 326 329 310 162 232 153 205 143 214 232 227 227 224 217 222 220 222 213 219 217 216 213 226 208 206 208 210 215 218 224 230 240 242 238 243 214 222 238 270 244 244 237 238 243 246 241
150 213 52 264 121 258 218 255 252 235 248 212 239 218 210 212 210 214 216 227 219 205 214 215 212 218 219 212 207 209 208 221 227 225 225 234 233 237 233 218 212 231 242 244 256 263 265 266 270
249 139 174 208 299 322 238 268 288 167 192 163 142 165 182 188 192 194 207 213 206 210 212 223 231 233 225 217 213 211 217 216 224 228 230 228 236 226 227 223 228 222 208 215 226 237 236 241 246
155 196 127 154 290 288 306 344 201 200 159 129 125 129 143 151 156 145 152 141 154 170 196 222 231 239 233 222 217 216 217 217 217 222 236 238 242 226 229 199 181 175 225 234 233 237 239 238 253
269 265 220 249 185 173 312 289 350 247 147 141 132 121 119 124 127 133 151 133 149 177 214 234 249 251 243 229 217 221 223 214 218 221 239 244 235 173 102 96 96 99 229 235 226 233 243 252 330